OK2ZAW-23 Weather Reports


Display with metric or nautical units.
time (UTC)temp
F
wind
direction
speed
MPH
gust
MPH
rain 1hr
in
rain 24hr
in
rain mn
in
humidity
%
barometer
mb
20260507024918 51 0 0.0 0.0 0.00 0.00 0.00 98 1005.8
20260507024405 51 0 0.0 0.0 0.00 0.00 0.00 99 1005.8
20260507022825 51 0 0.0 0.0 0.00 0.00 0.00 10 1005.6
20260507022312 51 0 0.0 0.0 0.00 0.00 0.00 10 1005.7
20260507021245 51 0 0.0 0.0 0.00 0.00 0.00 10 1005.7
20260507020219 51 0 0.0 0.0 0.00 0.00 0.00 99 1005.6
20260507015706 51 0 0.0 0.0 0.00 0.00 0.00 99 1005.6
20260507015153 51 0 0.0 0.0 0.00 0.00 0.00 99 1005.4
20260507014639 52 0 0.0 0.0 0.00 0.00 0.00 10 1005.2
20260507014126 52 0 0.0 0.0 0.00 0.00 0.00 10 1005.1
20260507012546 52 0 0.0 0.0 0.00 0.00 0.00 99 1005.0
20260507012032 52 0 0.0 0.0 0.00 0.00 0.00 10 1005.2
20260507011006 52 0 0.0 0.0 0.00 0.00 0.00 10 1005.2
20260507010453 52 0 0.0 0.0 0.00 0.00 0.00 10 1005.2
20260507005939 52 0 0.0 0.0 0.00 0.00 0.00 10 1005.2
20260507005426 52 0 0.0 0.0 0.00 0.00 0.00 10 1005.1
20260507004359 52 0 0.0 0.0 0.00 0.00 0.00 10 1004.9
20260507003846 52 0 0.0 0.0 0.00 0.00 0.00 10 1005.0
20260507003333 52 0 0.0 0.0 0.00 0.00 0.00 10 1004.9
20260507002306 52 0 0.0 0.0 0.00 0.00 0.00 98 1004.9
20260506235700 53 0 0.0 0.0 0.00 0.00 0.00 98 1004.6
20260506234632 53 0 0.0 0.0 0.00 0.00 0.00 96 1004.5
20260506233052 53 0 0.0 0.0 0.00 0.00 0.00 99 1003.7
20260506232539 53 0 0.0 0.0 0.00 0.00 0.00 99 1003.7
20260506232025 53 0 0.0 0.0 0.00 0.00 0.00 10 1003.5
20260506230959 53 0 0.0 0.0 0.00 0.00 0.00 98 1003.4
20260506230445 53 0 0.0 0.0 0.00 0.00 0.00 10 1003.4
20260506225932 53 0 0.0 0.0 0.00 0.00 0.00 99 1003.5
20260506224905 54 0 0.0 0.0 0.00 0.00 0.00 98 1003.5
20260506224352 54 0 0.0 0.0 0.00 0.00 0.00 97 1003.6
20260506223839 54 0 0.0 0.0 0.00 0.00 0.00 97 1003.2
20260506223325 54 0 0.0 0.0 0.00 0.00 0.00 96 1003.2
20260506222811 54 0 0.0 0.0 0.00 0.00 0.00 93 1003.1
20260506221744 55 0 0.0 0.0 0.00 0.00 0.00 91 1003.1
20260506221231 55 0 0.0 0.0 0.00 0.00 0.00 91 1003.1
20260506215650 57 0 0.0 0.0 0.00 0.00 0.00 88 1003.4
20260506215137 57 0 0.0 0.0 0.00 0.00 0.00 85 1003.2
20260506214623 58 0 0.0 0.0 0.00 0.00 0.00 80 1003.1
20260506212529 59 0 0.0 0.0 0.00 0.00 0.00 66 1002.1
20260506212015 59 0 0.0 0.0 0.00 0.00 0.00 66 1002.1
20260506211502 59 0 0.0 0.0 0.00 0.00 0.00 65 1002.0
20260506210434 59 0 0.0 0.0 0.00 0.00 0.00 65 1001.8
20260506205920 59 0 0.0 0.0 0.00 0.00 0.00 65 1001.8
20260506205407 59 0 0.0 0.0 0.00 0.00 0.00 65 1001.8
20260506203826 59 0 0.0 0.0 0.00 0.00 0.00 65 1001.8
20260506203312 59 0 0.0 0.0 0.00 0.00 0.00 65 1001.8
20260506202758 59 0 0.0 0.0 0.00 0.00 0.00 65 1001.7
20260506202245 59 0 0.0 0.0 0.00 0.00 0.00 65 1001.8
20260506200704 60 0 0.0 0.0 0.00 0.00 0.00 66 1001.8
20260506194609 60 0 0.0 0.0 0.00 0.00 0.00 69 1001.9
20260506194055 61 0 0.0 0.0 0.00 0.00 0.00 64 1001.9
20260506193541 62 0 0.0 0.0 0.00 0.00 0.00 65 1001.9
20260506193027 62 0 0.0 0.0 0.00 0.00 0.00 54 1001.8
20260506192513 62 0 0.0 0.0 0.00 0.00 0.00 54 1001.7
20260506192000 63 0 0.0 0.0 0.00 0.00 0.00 53 1001.6
20260506191446 63 0 0.0 0.0 0.00 0.00 0.00 53 1001.6
20260506190932 63 0 0.0 0.0 0.00 0.00 0.00 52 1001.4
20260506190418 63 0 0.0 0.0 0.00 0.00 0.00 52 1001.4
20260506185350 64 0 0.0 0.0 0.00 0.00 0.00 49 1001.3
20260506184836 64 0 0.0 0.0 0.00 0.00 0.00 47 1001.3
20260506183808 65 0 0.0 0.0 0.00 0.00 0.00 46 1001.3
20260506181712 66 0 0.0 0.0 0.00 0.00 0.00 43 1001.0
20260506181158 67 0 0.0 0.0 0.00 0.00 0.00 42 1000.9
20260506180644 67 0 0.0 0.0 0.00 0.00 0.00 41 1001.0
20260506180130 68 0 0.0 0.0 0.00 0.00 0.00 41 1001.0
20260506175102 70 0 0.0 0.0 0.00 0.00 0.00 38 1001.0
20260506174547 71 0 0.0 0.0 0.00 0.00 0.00 38 1000.9
20260506174033 71 0 0.0 0.0 0.00 0.00 0.00 37 1000.9
20260506173004 74 0 0.0 0.0 0.00 0.00 0.00 34 1001.0
20260506172450 75 0 0.0 0.0 0.00 0.00 0.00 33 1001.0
20260506170906 81 0 0.0 0.0 0.00 0.00 0.00 29 1000.9
20260506165320 89 0 0.0 0.0 0.00 0.00 0.00 26 1000.8
20260506164249 90 0 0.0 0.0 0.00 0.00 0.00 25 1000.8
20260506162147 90 0 0.0 0.0 0.00 0.00 0.00 26 1001.1
20260506161632 89 0 0.0 0.0 0.00 0.00 0.00 26 1001.3
20260506160601 92 0 0.0 0.0 0.00 0.00 0.00 25 1001.4
20260506160045 91 0 0.0 0.0 0.00 0.00 0.00 25 1001.5
20260506155530 91 0 0.0 0.0 0.00 0.00 0.00 25 1001.4
20260506155015 91 0 0.0 0.0 0.00 0.00 0.00 26 1001.4
20260506154458 90 0 0.0 0.0 0.00 0.00 0.00 27 1001.4
20260506153427 88 0 0.0 0.0 0.00 0.00 0.00 28 1001.6
20260506152357 84 0 0.0 0.0 0.00 0.00 0.00 31 1001.9
20260506151842 83 0 0.0 0.0 0.00 0.00 0.00 32 1001.9
20260506151327 82 0 0.0 0.0 0.00 0.00 0.00 33 1002.0
20260506150812 79 0 0.0 0.0 0.00 0.00 0.00 34 1002.1
20260506145227 82 0 0.0 0.0 0.00 0.00 0.00 33 1002.2
20260506144157 80 0 0.0 0.0 0.00 0.00 0.00 35 1002.4
20260506143643 79 0 0.0 0.0 0.00 0.00 0.00 35 1002.4
20260506143127 78 0 0.0 0.0 0.00 0.00 0.00 36 1002.5
20260506142614 79 0 0.0 0.0 0.00 0.00 0.00 35 1002.6
20260506142058 80 0 0.0 0.0 0.00 0.00 0.00 34 1002.6
20260506141028 78 0 0.0 0.0 0.00 0.00 0.00 35 1002.8
20260506140513 80 0 0.0 0.0 0.00 0.00 0.00 34 1002.9
20260506135958 82 0 0.0 0.0 0.00 0.00 0.00 33 1002.8
20260506133344 79 0 0.0 0.0 0.00 0.00 0.00 35 1003.0
20260506132829 77 0 0.0 0.0 0.00 0.00 0.00 36 1003.1
20260506132315 77 0 0.0 0.0 0.00 0.00 0.00 36 1003.2
20260506131245 76 0 0.0 0.0 0.00 0.00 0.00 36 1003.4
20260506125701 75 0 0.0 0.0 0.00 0.00 0.00 36 1003.6
20260506123603 75 0 0.0 0.0 0.00 0.00 0.00 37 1003.9
20260506123048 76 0 0.0 0.0 0.00 0.00 0.00 37 1003.9
20260506122534 77 0 0.0 0.0 0.00 0.00 0.00 37 1004.1
20260506115405 77 0 0.0 0.0 0.00 0.00 0.00 36 1004.2
20260506114336 76 0 0.0 0.0 0.00 0.00 0.00 37 1004.2
20260506113307 76 0 0.0 0.0 0.00 0.00 0.00 36 1004.3
20260506105109 77 0 0.0 0.0 0.00 0.00 0.00 40 1004.6
20260506104555 76 0 0.0 0.0 0.00 0.00 0.00 41 1004.7
20260506103525 75 0 0.0 0.0 0.00 0.00 0.00 43 1004.7
20260506103011 74 0 0.0 0.0 0.00 0.00 0.00 44 1004.8
20260506102457 74 0 0.0 0.0 0.00 0.00 0.00 44 1004.8
20260506101942 74 0 0.0 0.0 0.00 0.00 0.00 43 1004.8
20260506101427 74 0 0.0 0.0 0.00 0.00 0.00 44 1004.9
20260506100913 74 0 0.0 0.0 0.00 0.00 0.00 45 1004.9
20260506095845 73 0 0.0 0.0 0.00 0.00 0.00 46 1005.1
20260506095330 72 0 0.0 0.0 0.00 0.00 0.00 44 1005.0
20260506093232 71 0 0.0 0.0 0.00 0.00 0.00 48 1005.1
20260506092203 72 0 0.0 0.0 0.00 0.00 0.00 51 1005.1
20260506091649 71 0 0.0 0.0 0.00 0.00 0.00 53 1004.9
20260506091135 70 0 0.0 0.0 0.00 0.00 0.00 54 1005.0
20260506090620 69 0 0.0 0.0 0.00 0.00 0.00 54 1005.1
20260506090106 67 0 0.0 0.0 0.00 0.00 0.00 54 1005.1
20260506085552 67 0 0.0 0.0 0.00 0.00 0.00 54 1005.0
20260506085038 66 0 0.0 0.0 0.00 0.00 0.00 55 1005.0
20260506084010 67 0 0.0 0.0 0.00 0.00 0.00 59 1005.2
20260506082942 67 0 0.0 0.0 0.00 0.00 0.00 58 1005.2
20260506082428 67 0 0.0 0.0 0.00 0.00 0.00 57 1005.2
20260506081914 66 0 0.0 0.0 0.00 0.00 0.00 56 1005.2
20260506073209 62 0 0.0 0.0 0.00 0.00 0.00 68 1005.3
20260506072655 62 0 0.0 0.0 0.00 0.00 0.00 68 1005.3
20260506071628 61 0 0.0 0.0 0.00 0.00 0.00 71 1005.4
20260506061343 57 0 0.0 0.0 0.00 0.00 0.00 85 1005.1
20260506060830 57 0 0.0 0.0 0.00 0.00 0.00 86 1005.0
20260506050548 54 0 0.0 0.0 0.00 0.00 0.00 10 1004.9
20260506045008 53 0 0.0 0.0 0.00 0.00 0.00 10 1004.6
20260506043942 53 0 0.0 0.0 0.00 0.00 0.00 10 1004.5
20260506043428 53 0 0.0 0.0 0.00 0.00 0.00 10 1004.5
20260506042914 53 0 0.0 0.0 0.00 0.00 0.00 10 1004.4
20260506041848 52 0 0.0 0.0 0.00 0.00 0.00 10 1004.3
20260506040822 52 0 0.0 0.0 0.00 0.00 0.00 10 1004.3
20260506035754 52 0 0.0 0.0 0.00 0.00 0.00 10 1004.1
20260506033701 53 0 0.0 0.0 0.00 0.00 0.00 10 1003.9
20260506030541 54 0 0.0 0.0 0.00 0.00 0.00 10 1004.0
20260506025514 54 0 0.0 0.0 0.00 0.00 0.00 10 1004.0